Volver al catálogo

STARLINK-37490

ActivoComunicacionesVLEO
NORAD 69525·PAYLOAD·🇺🇸 United States

Lanzado Jun 12, 2026 desde Cape Canaveral Space Force Station

Loading…

Próximos Pases (próximas 24 horas)

TLE

ActualizadoSource: CelesTrak SupGP

Época: Sep 14, 2026, 21:34 UTC

1 69525C 26133T   26257.89909722  .00047488  00000+0  14034-2 0  2571
2 69525  53.1566 255.6637 0001234  86.5042  43.2531 15.34359356    17

Sigue STARLINK-37490 en tiempo real con AllMySat

Download on the App Store